Weather reports worldwide

Advertisment
Inverbervie, United Kingdom (3088): temperature & dewpoint: 12.08.2017 00:00:00 - 18.08.2017 00:00:00 (BST)Inverbervie, United Kingdom (3088): temperature -20cm & temperature -100cm: 12.08.2017 00:00:00 - 18.08.2017 00:00:00 (BST)Inverbervie, United Kingdom (3088): wind speed & gusts: 12.08.2017 00:00:00 - 18.08.2017 00:00:00 (BST)Inverbervie, United Kingdom (3088): wind direction: 12.08.2017 00:00:00 - 18.08.2017 00:00:00 (BST)Inverbervie, United Kingdom (3088): reduced air pressure: 12.08.2017 00:00:00 - 18.08.2017 00:00:00 (BST)Inverbervie, United Kingdom (3088): visibility: 12.08.2017 00:00:00 - 18.08.2017 00:00:00 (BST)Inverbervie, United Kingdom (3088): precipitation: 12.08.2017 00:00:00 - 18.08.2017 00:00:00 (BST)
Date & Time tt [°C] td [°C] tt -20cm [°C] tt -100cm [°C] ff [km/h] ff [kn] fx [km/h] fx [kn] dd ppp [hPa] vv [km] rr [mm]
18.08.2017 00:00:00 12,4 11,6 - - 13 7 - - SW 1002,7 26 0,0
17.08.2017 23:00:00 12,6 11,6 - - 15 8 - - WSW 1003,0 26 0,0
17.08.2017 22:00:00 13,9 12,1 - - 18 10 - - SSW 1003,1 30 0,0
17.08.2017 21:00:00 14,0 12,4 - - 15 8 - - SW 1003,4 30 0,0
17.08.2017 20:00:00 15,6 12,7 - - 26 14 48 26 WSW 1003,3 10 0,0
17.08.2017 19:00:00 15,9 12,1 - - 31 17 - - SW 1003,1 45 0,0
17.08.2017 18:00:00 17,6 11,6 - - 28 15 46 25 SW 1002,9 35 0,0
17.08.2017 17:00:00 17,2 12,7 - - 24 13 - - SSW 1003,0 35 0,0
17.08.2017 16:00:00 16,4 12,5 - - 26 14 - - SSW 1003,2 26 0,0
17.08.2017 15:00:00 15,5 12,3 - - 26 14 - - S 1003,4 28 0,0
17.08.2017 14:00:00 16,4 12,6 - - 24 13 - - S 1003,4 25 0,0
17.08.2017 13:00:00 16,0 13,8 - - 31 17 - - S 1003,3 15 0,0
17.08.2017 12:00:00 15,9 13,3 - - 28 15 - - SSW 1003,5 13 0,0
17.08.2017 11:00:00 15,3 13,0 - - 26 14 - - SSW 1003,6 14 0,0
17.08.2017 10:00:00 14,9 13,4 15,0 14,0 21 11 - - SSW 1003,4 16 0,0
17.08.2017 09:00:00 14,3 13,5 - - 21 11 - - SW 1003,4 13 0,0
17.08.2017 08:00:00 13,4 13,4 - - 18 10 - - SW 1003,2 15 0,0
17.08.2017 07:00:00 12,8 12,8 - - 16 9 - - SW 1002,9 15 0,0
17.08.2017 06:00:00 13,4 13,4 - - 16 9 - - SW 1002,6 0,2 0,0
17.08.2017 05:00:00 13,5 13,5 - - 24 13 - - SSW 1002,4 0,1 0,0
17.08.2017 04:00:00 13,4 13,4 - - 21 11 - - SSW 1002,7 5 0,0
17.08.2017 03:00:00 13,5 13,3 - - 26 14 46 25 SSW 1003,8 3,7 0,2
17.08.2017 02:00:00 13,5 13,3 - - 22 12 - - S 1003,7 7 0,0
17.08.2017 01:00:00 13,8 13,3 - - 37 20 46 25 S 1004,3 10 0,0
17.08.2017 00:00:00 13,7 13,1 - - 34 18 48 26 S 1005,0 10 0,0
16.08.2017 23:00:00 14,0 12,9 - - 35 19 46 25 S 1005,6 13 0,0
16.08.2017 22:00:00 13,6 12,9 - - 26 14 - - SSE 1006,7 11 0,8
16.08.2017 21:00:00 13,5 12,7 - - 28 15 - - SSE 1007,5 11 0,0
16.08.2017 20:00:00 13,4 12,7 - - 22 12 - - SSE 1007,9 12 0,0
16.08.2017 19:00:00 13,2 12,6 - - 22 12 - - S 1008,6 14 0,0
16.08.2017 18:00:00 13,4 13,1 - - 31 17 - - S 1009,2 10 1,0
16.08.2017 17:00:00 13,5 12,7 - - 31 17 46 25 S 1010,0 11 0,4
16.08.2017 16:00:00 14,1 13,0 - - 28 15 - - S 1010,6 17 0,0
16.08.2017 15:00:00 15,3 12,0 - - 28 15 - - SSW 1011,3 29 -
16.08.2017 14:00:00 14,2 12,6 - - 39 21 46 25 S 1012,1 17 0,0
16.08.2017 13:00:00 14,0 12,8 - - 29 16 - - SSE 1012,2 13 0,0
16.08.2017 12:00:00 15,1 13,1 - - 31 17 - - S 1012,9 18 0,0
16.08.2017 11:00:00 14,5 13,1 - - 18 10 - - S 1013,6 15 0,0
16.08.2017 10:00:00 14,0 12,5 15,0 14,0 15 8 - - SSE 1014,1 30 0,0
16.08.2017 09:00:00 13,3 11,8 - - 13 7 - - SSW 1014,4 40 0,0
16.08.2017 08:00:00 11,9 11,0 - - 13 7 - - SW 1014,7 25 0,0
16.08.2017 07:00:00 9,7 9,0 - - 5 3 - - WSW 1014,8 27 0,0
16.08.2017 06:00:00 8,9 8,3 - - 13 7 - - SSW 1015,0 30 0,0
16.08.2017 05:00:00 9,2 8,2 - - 13 7 - - W 1014,6 45 0,0
16.08.2017 04:00:00 9,3 8,1 - - 16 9 - - W 1014,6 50 0,0
16.08.2017 03:00:00 9,9 8,2 - - 16 9 - - WSW 1014,8 40 0,0
16.08.2017 02:00:00 10,3 8,0 - - 22 12 - - WSW 1014,3 50 0,0
16.08.2017 01:00:00 10,5 8,2 - - 13 7 - - W 1014,0 50 0,0
16.08.2017 00:00:00 11,0 8,4 - - 15 8 - - WSW 1013,9 45 0,0
15.08.2017 23:00:00 12,3 8,8 - - 26 14 - - WSW 1013,3 50 0,0
15.08.2017 22:00:00 12,7 9,6 - - 24 13 - - WSW 1012,4 45 0,0
15.08.2017 21:00:00 13,6 9,8 - - 26 14 - - WSW 1011,8 50 0,0
15.08.2017 20:00:00 15,3 10,1 - - 29 16 46 25 WSW 1010,8 40 0,0
15.08.2017 19:00:00 16,3 10,3 - - 29 16 - - WSW 1010,0 50 0,0
15.08.2017 18:00:00 16,2 10,0 - - 41 22 55 30 WSW 1009,7 35 0,0
15.08.2017 17:00:00 16,7 10,5 - - 31 17 48 26 WSW 1009,3 35 0,0
15.08.2017 16:00:00 18,5 11,1 - - 35 19 46 25 WSW 1008,9 35 0,0
15.08.2017 15:00:00 17,8 9,7 - - 34 18 48 26 WSW 1008,6 35 0,0
15.08.2017 14:00:00 17,1 13,2 - - 24 13 - - WSW 1008,7 45 0,2
15.08.2017 13:00:00 17,9 11,4 - - 26 14 - - SW 1008,3 40 0,0
15.08.2017 12:00:00 17,0 11,5 - - 21 11 - - SW 1008,2 35 0,0
15.08.2017 11:00:00 16,7 13,1 - - 8 4 - - W 1007,5 40 0,0
15.08.2017 10:00:00 14,8 14,5 14,9 14,0 5 3 - - W 1007,3 40 0,0
15.08.2017 09:00:00 13,5 13,5 - - 13 7 - - S 1007,2 10 0,0
15.08.2017 08:00:00 12,9 12,9 - - 9 5 - - W 1006,8 50 0,0
15.08.2017 07:00:00 12,7 12,7 - - 16 9 - - W 1006,1 35 0,2
15.08.2017 06:00:00 12,8 12,8 - - 13 7 - - W 1005,7 13 0,2
15.08.2017 05:00:00 13,0 13,0 - - 11 6 - - W 1005,4 0,1 6,6
15.08.2017 04:00:00 13,1 13,1 - - 11 6 - - SW 1006,0 - 2,0
15.08.2017 03:00:00 13,1 13,1 - - 9 5 - - S 1006,7 - 3,6
15.08.2017 02:00:00 13,4 13,4 - - 13 7 - - SSW 1007,7 - 4,0
15.08.2017 01:00:00 13,5 13,5 - - 13 7 - - S 1008,5 - 3,2
15.08.2017 00:00:00 13,3 13,2 - - 18 10 - - SSW 1009,5 5 0,6
14.08.2017 23:00:00 13,2 13,1 - - 15 8 - - SSW 1009,8 4,7 0,0
14.08.2017 22:00:00 13,4 13,2 - - 16 9 - - S 1010,3 6 0,6
14.08.2017 21:00:00 13,3 13,0 - - 29 16 - - S 1010,2 6 0,2
14.08.2017 20:00:00 13,3 13,0 - - 24 13 - - S 1010,1 10 0,0
14.08.2017 19:00:00 13,3 13,0 - - 28 15 - - SSE 1010,1 10 0,0
14.08.2017 18:00:00 12,9 12,9 - - 16 9 - - SSE 1010,9 5 0,2
14.08.2017 17:00:00 12,5 12,5 - - 29 16 - - SSE 1011,4 2,0 0,4
14.08.2017 16:00:00 12,4 12,4 - - 31 17 - - SSE 1011,9 0,1 0,2
14.08.2017 15:00:00 12,4 12,3 - - 34 18 46 25 S 1012,4 0,9 1,8
14.08.2017 14:00:00 13,0 12,4 - - 37 20 50 27 S 1012,7 6 0,0
14.08.2017 13:00:00 13,8 13,1 - - 39 21 52 28 SSE 1012,6 11 0,0
14.08.2017 12:00:00 12,5 12,4 - - 42 23 52 28 SSE 1013,5 7 0,4
14.08.2017 11:00:00 12,7 12,6 - - 31 17 - - SSE 1014,1 6 0,6
14.08.2017 10:00:00 12,0 11,9 15,2 14,0 28 15 - - SSE 1014,6 5 0,6
14.08.2017 09:00:00 12,1 11,9 - - 21 11 - - SSE 1015,1 7 0,6
14.08.2017 08:00:00 12,2 11,9 - - 15 8 - - SSE 1015,3 12 1,0
14.08.2017 07:00:00 12,2 12,2 - - 11 6 - - S 1015,6 6 0,2
14.08.2017 06:00:00 12,1 12,0 - - 15 8 - - SSE 1015,6 7 0,0
14.08.2017 05:00:00 12,2 11,9 - - 11 6 - - S 1016,2 8 0,0
14.08.2017 04:00:00 12,1 11,8 - - 9 5 - - S 1016,7 10 0,0
14.08.2017 03:00:00 12,2 11,9 - - 15 8 - - S 1017,4 17 0,0
14.08.2017 02:00:00 11,9 11,5 - - 15 8 - - S 1018,0 12 0,0
14.08.2017 01:00:00 11,3 11,0 - - 8 4 - - SW 1018,6 16 0,0
14.08.2017 00:00:00 12,0 11,3 - - 11 6 - - SSW 1018,6 15 0,0
13.08.2017 23:00:00 11,4 10,6 - - 15 8 - - SSW 1018,8 29 0,0
13.08.2017 22:00:00 12,6 9,1 - - 5 3 - - E 1019,0 50 0,0
13.08.2017 21:00:00 12,1 9,0 - - 8 4 - - ENE 1018,9 45 0,0
13.08.2017 20:00:00 13,2 10,4 - - 8 4 - - ENE 1018,8 50 0,0
13.08.2017 19:00:00 14,9 7,9 - - 15 8 - - WSW 1018,5 50 0,0
13.08.2017 18:00:00 16,3 9,9 - - 8 4 - - NW 1018,4 50 0,0
13.08.2017 17:00:00 15,7 7,7 - - 24 13 - - W 1018,2 50 0,0
13.08.2017 16:00:00 14,5 10,3 - - 22 12 - - SSW 1018,5 40 0,0
13.08.2017 15:00:00 12,9 10,1 - - 24 13 - - S 1018,8 27 0,0
13.08.2017 14:00:00 14,1 10,2 - - 22 12 - - S 1018,5 35 0,0
13.08.2017 13:00:00 13,8 10,0 - - 21 11 - - SSE 1018,7 30 0,0
13.08.2017 12:00:00 14,4 7,7 - - 16 9 - - S 1018,6 35 0,0
13.08.2017 11:00:00 14,8 6,6 - - 9 5 - - W 1018,7 40 0,0
13.08.2017 10:00:00 14,2 7,3 15,2 14,0 8 4 - - SW 1018,6 45 0,0
13.08.2017 09:00:00 11,6 8,7 - - 5 3 - - W 1018,5 30 0,0
13.08.2017 08:00:00 8,5 6,6 - - 15 8 - - WNW 1018,3 50 0,0
13.08.2017 07:00:00 8,2 6,3 - - 11 6 - - WNW 1018,0 35 0,0
13.08.2017 06:00:00 8,9 6,4 - - 11 6 - - WNW 1017,6 50 0,0
13.08.2017 05:00:00 9,1 7,3 - - 9 5 - - WNW 1017,5 50 0,0
13.08.2017 04:00:00 9,6 7,5 - - 5 3 - - WNW 1017,3 45 0,0
13.08.2017 03:00:00 9,2 7,6 - - 9 5 - - WNW 1017,4 40 0,0
13.08.2017 02:00:00 9,4 8,0 - - 9 5 - - NW 1017,1 45 0,0
13.08.2017 01:00:00 9,7 8,3 - - 8 4 - - WNW 1017,3 40 0,0
13.08.2017 00:00:00 10,0 8,2 - - 9 5 - - WNW 1017,1 50 0,0
12.08.2017 23:00:00 10,8 8,9 - - 8 4 - - WNW 1016,9 35 0,2
12.08.2017 22:00:00 11,5 9,4 - - 9 5 - - W 1016,7 29 0,0
12.08.2017 21:00:00 11,4 9,7 - - 5 3 - - SSW 1016,3 35 0,0
12.08.2017 20:00:00 12,2 10,0 - - 8 4 - - S 1015,8 30 0,0
12.08.2017 19:00:00 12,3 9,3 - - 4 2 - - ENE 1015,4 29 0,0
12.08.2017 18:00:00 13,1 10,3 - - 13 7 - - W 1015,2 16 0,0
12.08.2017 17:00:00 13,7 10,2 - - 13 7 - - S 1014,5 27 0,0
12.08.2017 16:00:00 13,0 10,0 - - 15 8 - - S 1014,3 45 0,0
12.08.2017 15:00:00 14,4 11,9 - - 11 6 - - S 1013,9 25 0,6
12.08.2017 14:00:00 15,8 8,3 - - 2 1 - - WSW 1013,3 30 0,0
12.08.2017 13:00:00 14,1 8,2 - - 16 9 - - N 1012,9 45 0,2
12.08.2017 12:00:00 14,7 9,7 - - 5 3 - - ENE 1012,4 35 0,0
12.08.2017 11:00:00 15,2 10,9 - - 13 7 - - N 1011,8 19 0,0
12.08.2017 10:00:00 12,4 10,1 15,2 14,0 16 9 - - NW 1011,5 30 0,0
12.08.2017 09:00:00 11,8 9,8 - - 18 10 - - NNW 1010,9 29 0,0
12.08.2017 08:00:00 11,4 9,9 - - 15 8 - - NW 1010,3 30 0,0
12.08.2017 07:00:00 11,0 9,8 - - 15 8 - - NNW 1009,7 23 0,0
12.08.2017 06:00:00 11,3 9,3 - - 21 11 - - NNW 1009,1 18 0,0
12.08.2017 05:00:00 11,7 9,5 - - 16 9 - - NW 1008,5 40 0,0
12.08.2017 04:00:00 12,0 9,9 - - 16 9 - - NNW 1008,2 45 0,0
12.08.2017 03:00:00 12,1 10,9 - - 16 9 - - NNW 1007,9 50 0,0
12.08.2017 02:00:00 12,4 11,1 - - 16 9 - - WNW 1007,5 40 0,0
12.08.2017 01:00:00 12,4 10,8 - - 13 7 - - W 1007,6 50 0,0
12.08.2017 00:00:00 12,4 10,5 - - 16 9 - - WSW 1007,4 35 0,0

tt = temperature
td = dewpoint
tt -20cm = temperature -20cm
tt -100cm = temperature -100cm
ff = wind speed
fx = gusts
dd = wind direction
ppp = reduced air pressure
vv = visibility
rr = precipitation

Next stations